USA 130

导读

USA 130是美国于1997年2月23日发射的军用侦察卫星,隶属于美国国家侦察局。作为美军天基侦察体系的重要组成部分,它主要承担电子信号情报搜集任务,通过截获敌方通信、雷达等电磁信号,为军方提供战略情报支持。该卫星运行在近地轨道,服役期间持续对全球重点区域进行监测,是美国保持全球情报优势的关键太空资产,帮助美军掌握他国军事部署与活动动态。

基本信息
目录编号:
24737
目录名称:
USA 130
国际标识:
1997-008A
轨道中心:
EARTH
卫星名称:
USA 130
卫星全名:
--
卫星状态:
在轨 (已飞行10706 天)
发射日期:
1997-02-23 UTC
国别 :
美国 (US)
星等 :
--
轨道信息
数据来源 国际轨道数据 AOE轨道数据
星历时间 2026-06-15T18:31:20+0800
2天前
查看轨道信息
2026-06-17T04:00:00+0800
20小时前
查看轨道信息
半长轴 42515.881km 42516.025km
偏心率 0.0010959 0.0011046
轨道倾角 14.435° 14.435°
近地点辐角 320.651° 321.411°
升交点赤经 3.821° 3.812°
平近点角 248.143° 24.700°
近地点 36091.15km 36090.924km
远地点 36184.338km 36184.852km
周期 1454.074分钟 1454.081分钟
每日圈数 0.990321 0.990316
详细信息
使用方式:
暂无
2D轨道图
3D轨道图
轨道高度分析图
轨道倾角分析图
轨道综合分析图
查看轨道综合分析图